www.pogodaiklimat.ru

Погода и климат >> Архив погоды >> Россия >> Красноярский край >> Караул


ПОГОДА в Карауле

  • Прогноз погоды в Карауле
  • Монитор погоды в Карауле

АРХИВ ПОГОДЫ в Карауле

Время (UTC), дата Ветер
(напр.,м/с)
 
Видим.   Явления Облачность Т
(С)
Тd
(С)
f
(%)
Тe
(С)
Тes
(С)
Комфортность P
(гПа)
Po
(гПа)
Тmin
(С)
Tmax
(С)
R
(мм)
R24
(мм)
S
(см)
03 13.05 С 7 20 км позёмок 5/0 2000 м
[Ac trans Ci fib]
-7.8 -9.2 90 -17 -15 1027.8 1024.0
06 13.05 С 9-13
{13}
20 км слаб. снег {метель} 10/0 2000 м
[Ac trans Cs]
-6.5 -8.5 86 -16 -15 1027.6 1023.9
09 13.05 С 10-14
{14}
20 км сильный позёмок 8/8 300 м
[Sc]
-5.6 -9.0 77 -15 -15 1027.5 1023.8
12 13.05 С 11-16
{17}
4000 м метель {снег} 4/3 300 м
[Sc Ac trans]
-6.0 -8.3 84 -16 -16 1027.8 1024.1 -5.6 0.0
15 13.05 С 9-14
{16}
20 км сильный позёмок 3/3 300 м
[Sc]
-8.8 -11.6 80 -19 -19 1028.8 1025.0
18 13.05 С 10-14
{14}
20 км сильный позёмок 1/1 300 м
[Sc]
-10.0 -12.0 85 -21 -21 1028.2 1024.4
21 13.05 С 10-15
{16}
4000 м метель 4/4 300 м
[Sc]
-10.2 -12.2 85 -21 -21 1028.7 1024.9
00 14.05 С 10-14
{15}
20 км сильный позёмок 3/3 300 м
[Sc]
-10.6 -12.6 85 -21 -21 1028.9 1025.1 -10.8 84
03 14.05 С 11-16
{17}
4000 м метель 3/0 2000 м
[Ac lent]
-10.1 -12.9 80 -21 -21 1029.0 1025.1
06 14.05 С 10-14
{18}
20 км сильный позёмок 3/1 600 м
[Sc Ac lent]
-7.7 -10.3 82 -18 -18 1030.3 1026.5
09 14.05 С 8-12
{14}
20 км позёмок 9/9 600 м
[Sc]
-6.7 -9.5 80 -16 -16 1030.6 1026.8
12 14.05 С 8-13
{13}
20 км позёмок 1/1 600 м
[Sc]
-7.2 -9.7 82 -16 -16 1030.4 1026.6 -6.3
15 14.05 С 8-12
{13}
20 км позёмок 4/0 2000 м
[Ac trans]
-8.3 -11.1 80 -18 -18 1030.2 1026.4
18 14.05 С 8-12
{12}
20 км позёмок 3/0 2000 м
[Ac trans]
-9.6 -12.6 79 -19 -19 1030.2 1026.4
21 14.05 С 8-12
{12}
20 км позёмок 3/0 2000 м
[Ac trans]
-10.4 -13.1 81 -20 -20 1030.2 1026.4
00 15.05 С 7-10
{12}
2000 м дымка 8/0 2000 м
[Ac trans]
-12.1 -14.1 85 -22 -21 1030.0 1026.1 -12.3 84
03 15.05 С 8-13
{13}
20 км позёмок 3/0 2000 м
[Ac lent]
-10.2 -13.8 75 -20 -19 1028.8 1024.9
06 15.05 С 8-12
{13}
20 км позёмок 1/0 2000 м
[Ac trans]
-7.4 -10.8 77 -17 -15 1029.2 1025.4
09 15.05 С 9-13
{13}
20 км позёмок 6/0
[Ci]
-6.4 -9.6 78 -16 -15 1028.9 1025.1
12 15.05 С 7-11
{13}
20 км {метель} 10/0
[Cs]
-6.4 -9.2 80 -15 -14 1028.8 1025.0 -6.0
15 15.05 С 7-10
{11}
20 км 10/0
[Cs]
-7.8 -10.5 81 -17 -17 1028.8 1025.0
18 15.05 С 7-10
{10}
20 км 10/0
[Cs]
-8.4 -11.2 80 -17 -17 1028.8 1025.0
21 15.05 С 5
{10}
20 км 10/0 2000 м
[Ac trans]
-10.2 -13.0 80 -18 -18 1028.9 1025.0
00 16.05 С 3 50 км 6/0 2000 м
[Ac trans]
-13.2 -15.2 85 -19 -18 1027.1 1023.2 -13.4 82
03 16.05 С 4 50 км 4/0 2000 м
[Ac trans Ci fib]
-11.0 -13.8 80 -18 -15 1027.2 1023.4
06 16.05 С 3 50 км 3/0 2000 м
[Ac trans Ci fib]
-8.0 -11.2 78 -14 -8 1026.4 1022.6
09 16.05 С 2 50 км 3/0
[Ci fib]
-5.9 -9.8 74 -10 -3 1026.2 1022.5
12 16.05 С 1 50 км 3/0 2000 м
[Ac trans]
-4.4 -9.1 70 -6 -4 1025.9 1022.2 -4.2
15 16.05 В 5 50 км 1/0 2000 м
[Ac trans]
-6.6 -10.3 75 -14 -14 1024.9 1021.2
18 16.05 В 5 50 км 1/0 2000 м
[Ac trans]
-8.7 -11.6 79 -16 -16 1024.4 1020.6
21 16.05 СВ 4 50 км 1/0 2000 м
[Ac trans]
-10.8 -13.6 80 -18 -18 1023.4 1019.6
00 17.05 В 3 50 км 3/0 2000 м
[Ac trans Ci fib]
-10.9 -13.7 80 -17 -15 1022.6 1018.8 -11.2 82
03 17.05 В 4 20 км 6/0 2000 м
[Ac trans Ci]
-9.7 -12.8 78 -17 -14 1022.3 1018.5
06 17.05 ЮВ 5 20 км 3/0 2000 м
[Ac trans]
-6.7 -10.4 75 -14 -10 1022.0 1018.3
09 17.05 В 4 20 км ясно -2.2 -6.9 70 -8 -3 1022.1 1018.4
12 17.05 В 7-10
{10}
20 км ясно -1.2 -7.1 64 -8 -7 1021.9 1018.2 -0.9
15 17.05 СВ 7-10
{10}
20 км ясно -1.6 -7.2 66 -9 -9 1021.7 1018.0
18 17.05 СВ 6
{10}
20 км ясно -6.2 -9.7 76 -14 -14 1021.7 1018.0
21 17.05 СВ 6 20 км ясно -9.2 -12.4 78 -18 -17 1021.8 1018.0
00 18.05 СВ 7-10
{10}
20 км ясно -5.1 -10.5 66 -13 -13 1021.0 1017.3 -9.2 82
03 18.05 В 7-10
{12}
20 км ясно -2.7 -10.2 56 -10 -8 1020.4 1016.7
06 18.05 В 6-10
{12}
20 км 3/0
[Ci fib]
-2.6 -7.8 67 -10 -6 1020.3 1016.6
09 18.05 В 8-13
{13}
20 км ясно -0.3 -6.9 61 -7 -6 1019.9 1016.2
12 18.05 В 8-12
{14}
20 км ясно -2.6 -6.3 76 -11 -10 1019.7 1016.0 0.0
15 18.05 СВ 8-12
{12}
20 км ясно -4.2 -8.0 75 -13 -13 1019.4 1015.7
18 18.05 СВ 8-12
{12}
20 км 3/0 2000 м
[Ac trans]
-5.3 -9.0 75 -14 -14 1019.2 1015.5
21 18.05 СВ 8-12
{13}
20 км 8/0 2000 м
[Ac trans]
-6.0 -9.5 76 -15 -15 1018.3 1014.6
00 19.05 С 8-13
{13}
20 км 3/0 2000 м
[Ac trans]
-7.4 -10.8 77 -17 -16 1016.3 1012.7 -7.6 81
03 19.05 С 8-12
{13}
20 км 1/0 2000 м
[Ac trans]
-6.3 -10.3 73 -15 -14 1015.2 1011.5
06 19.05 С 9-13
{14}
50 км 1/0 2000 м
[Ac trans]
-4.3 -8.1 75 -13 -12 1013.8 1010.1
09 19.05 С 11-15
{16}
50 км пыль {метель} 1/0 2000 м
[Ac trans]
-4.1 -7.1 80 -14 -14 1012.6 1008.9
12 19.05 С 11-15
{17}
50 км сильный позёмок 1/0
[Ci fib]
-4.0 -6.8 81 -14 -14 1012.1 1008.4 -3.6
15 19.05 СВ 11-16
{18}
50 км сильный позёмок 3/0
[Ci fib]
-5.2 -8.1 80 -15 -15 1011.1 1007.4
18 19.05 СВ 10-16
{17}
50 км сильный позёмок 1/0
[Ci fib]
-6.8 -9.7 80 -17 -17 1009.5 1005.8
21 19.05 СВ 12-18
{18}
50 км сильный позёмок 3/0 2000 м
[Ac trans Ci fib]
-8.2 -10.9 81 -19 -19 1007.7 1004.0
00 20.05 СВ 11-17
{18}
50 км сильный позёмок 3/0
[Ci fib]
-9.0 -11.5 82 -20 -20 1007.3 1003.6 -9.2 81

 

Местоположение метеостанции Караул (Красноярский край, Россия): широта 70.08 долгота 83.17 высота над уровнем моря 29 м.

В архиве по умолчанию представлена погода в Карауле за последнюю неделю. Архивные данные за месяц целиком и за предыдущие месяцы, начиная с января 2011 года, Вы можете получить, выбрав интересующий диапазон дат из раскрывающегося списка и нажав кнопку "Ввод!".


*Определитесь, кто Вы:
робот инопланетянин человек

Внимание! Время в таблицах - всемирное. Для получения местного времени необходимо прибавить поправку, которая равна 7 ч.

Смотрите также архив погоды в соседних городах и на ближайших метеорологических станциях:

Погода в Гыде (Ямало-Ненецкий АО, Россия) (196 км)
Погода в Потапово (Красноярский край, Россия) (198 км)
Погода в Сопочной Карге (Красноярский край, Россия) (200 км)
Погода в Норильске (Красноярский край, Россия) (215 км)
Погода в Крестах Таймырских (Красноярский край, Россия) (265 км)
Погода в Антипаюте (Ямало-Ненецкий АО, Россия) (269 км)
Погода в Снежногорске (Красноярский край, Россия) (286 км)
Погода в Игарке (Красноярский край, Россия) (321 км)
Погода в Тазовском (Ямало-Ненецкий АО, Россия) (341 км)
Погода в Горбиачине (Красноярский край, Россия) (345 км)

Пояснения к столбцам:

Ветер - указаны скорость ветра в м/с - средняя за 10 мин, порывы в срок и между сроками (в фигурных скобках) и направление, откуда дует ветер: С - северный, СВ - северо-восточный, В - восточный, ЮВ - юго-восточный, Ю - южный, ЮЗ - юго-западный, З - западный, СЗ - северо-западный.
Видимость - горизонтальная дальность видимости в метрах или километрах. При видимости от 1 до 10 км при отсутствии осадков обычно наблюдается дымка, при ухудшении видимости до 1 км и менее - туман. В сухую погоду видимость может ухудшаться дымом, пылью или мглою.
Явления - указаны атмосферные явления, наблюдавшиеся в срок или в последний час перед сроком; фигурными скобками обозначены явления, наблюдавшиеся между сроками (за 1-3 часа до срока); квадратными скобками обозначены град или гололедные отложения с указанием их диаметра в мм.
Облачность - указаны через наклонную черту общая и нижняя облачность в баллах и высота нижней границы облаков в метрах; квадратными скобками обозначены формы облаков: Ci - перистые, Cs - перисто-слоистые, Cc - перисто-кучевые, Ac - высококучевые, As - высокослоистые, Sc - слоисто-кучевые, Ns - слоисто-дождевые, Cu - кучевые, Cb - кучево-дождевые. Подробнее классификацию облаков см. в Атласе облаков (PDF).
T - Температура воздуха - температура, измеренная на высоте 2 м над землей.
Td - Температура точки росы - температура, при понижении до которой содержащийся в воздухе водяной пар достигнет насыщения.
f - Относительная влажность воздуха - влажноcть воздуха, измеренная на высоте 2 м над землей.
Te - Эффективная температура - температура, которую ощущает одетый по сезону человек в тени. Характеристика душности погоды. При расчете учитывается влияние влажности воздуха и скорости ветра на теплоощущения человека.
Tes - Эффективная температура на солнце - температура, которую ощущает человек, с поправкой на солнечный нагрев. Характеристика знойности погоды. Зависит от высоты солнца над горизонтом, облачности и скорости ветра. Ночью, в пасмурную погоду, а также при ветре 12 м/с и более поправка равна нулю.
P - Атмосферное давление - приведенное к уровню моря атмосферное давление.
Po - Атмосферное давление - измеренное на уровне метеостанции атмосферное давление.
Tmin - Минимальная температура - минимум температуры воздуха на высоте 2 м над землей.
Tmax - Максимальная температура - максимум температуры воздуха на высоте 2 м над землей.
R - Количество осадков - Количество выпавших осадков за период времени, мм. При наведении курсора мыши на число - период времени, за который выпало указанное количество осадков.
R24 - Количество осадков - Количество выпавших осадков за 24 часа, мм.
S - Снежный покров - Высота снежного покрова, см. При наведении курсора мыши на число - состояние снежного покрова и степень покрытия местности в баллах.